www.pogodaiklimat.ru

Погода и климат >> Архив погоды >> Антарктида >> Лимберт


ПОГОДА на Лимберте

  • Прогноз погоды на Лимберте
  • Монитор погоды на Лимберте

АРХИВ ПОГОДЫ на Лимберте

Время (UTC), дата Ветер
(напр.,м/с)
 
Видим.   Явления Облачность Т
(С)
Тd
(С)
f
(%)
Тe
(С)
Тes
(С)
Комфортность P
(гПа)
Po
(гПа)
Тmin
(С)
Tmax
(С)
R
(мм)
R24
(мм)
S
(см)
06 17.02 ЮЗ 9 н/о н/о -13.7 -15.3 88 -25 -25 989.2 982.0
09 17.02 З 7 н/о н/о -14.1 -15.8 87 -24 -24 991.1 983.8
12 17.02 З 5 н/о н/о -13.4 -15.1 87 -22 -22 992.7 985.4
15 17.02 З 5 н/о н/о -12.1 -13.7 88 -20 -20 994.0 986.8
18 17.02 З 4 н/о н/о -11.5 -13.2 87 -18 -18 996.1 988.9
21 17.02 З 4 н/о н/о -11.9 -13.9 85 -19 -19 998.0 990.7
00 18.02 З 3 н/о н/о -12.8 -14.7 86 -19 -19 999.9 992.6
03 18.02 З 2 н/о н/о -14.2 -16.0 86 -19 -19 1001.4 994.1
06 18.02 З 2 н/о н/о -17.4 -19.1 87 -22 -22 1003.2 995.8
09 18.02 З 2 н/о н/о -20.5 -22.8 82 -27 -27 1005.3 997.7
12 18.02 ЮЗ 2 н/о н/о -17.7 -19.8 84 -23 -23 1006.9 999.4
18 18.02 нст 1 н/о н/о -10.9 -13.0 84 -11 -11 1008.7 1001.4
21 18.02 ЮЗ 2 н/о н/о -12.4 -16.5 71 -16 -16 1009.7 1002.3
00 19.02 ЮЗ 4 н/о н/о -15.9 -17.5 87 -24 -24 1010.6 1003.1
03 19.02 ЮЗ 3 н/о н/о -15.5 -17.2 87 -22 -22 1011.2 1003.7
06 19.02 ЮЗ 2 н/о н/о -22.6 -24.8 82 -29 -29 1011.5 1003.8
09 19.02 ЮЗ 3 н/о н/о -22.9 -25.2 81 -31 -31 опасность
обморожения
1012.3 1004.6
12 19.02 ЮЗ 3 н/о н/о -19.8 -22.7 78 -27 -27 1012.4 1004.8
15 19.02 ЮЗ 6 н/о н/о -17.0 -19.8 79 -27 -27 1012.1 1004.6
18 19.02 ЮЗ 6 н/о н/о -16.2 -18.8 80 -26 -26 1011.5 1004.0
21 19.02 Ю 6 н/о н/о -17.8 -20.3 81 -28 -28 1011.3 1003.8
00 20.02 ЮЗ 5 н/о н/о -20.4 -22.6 82 -31 -31 опасность
обморожения
1011.7 1004.1
03 20.02 Ю 4 н/о н/о -23.3 -25.5 82 -33 -33 опасность
обморожения
1011.5 1003.8
06 20.02 Ю 3 н/о н/о -23.9 -26.3 80 -32 -32 опасность
обморожения
1010.8 1003.1
09 20.02 ЮЗ 4 н/о н/о -24.3 -26.8 80 -34 -34 опасность
обморожения
1010.5 1002.8
12 20.02 Ю 5 н/о н/о -19.9 -22.1 83 -30 -30 1010.1 1002.5
15 20.02 Ю 5 н/о н/о -18.0 -20.1 84 -28 -28 1009.5 1002.0
21 20.02 ЮЗ 4 н/о н/о -17.6 -20.2 80 -26 -26 1009.1 1001.6
00 21.02 ЮЗ 3 н/о н/о -23.4 -26.3 77 -32 -32 опасность
обморожения
1009.2 1001.5
03 21.02 ЮЗ 3 н/о н/о -27.3 -30.0 78 -37 -37 опасность
обморожения
1008.9 1001.1
06 21.02 З 3 н/о н/о -28.4 -31.3 76 -37 -37 опасность
обморожения
1008.1 1000.3
09 21.02 З 2 н/о н/о -27.9 -30.9 75 -34 -34 опасность
обморожения
1007.5 999.7
12 21.02 нст 1 н/о н/о -21.5 -24.5 77 -22 -22 1006.4 998.8
15 21.02 В 3 н/о н/о -19.8 -22.7 78 -27 -27 1004.9 997.4
18 21.02 В 3 н/о н/о -17.1 -19.8 79 -24 -24 1002.9 995.5
21 21.02 В 3 н/о н/о -17.4 -20.1 79 -25 -25 1001.7 994.3
00 22.02 СВ 3 н/о н/о -20.7 -22.7 84 -29 -29 1000.1 992.6
03 22.02 В 2 н/о н/о -18.2 -20.0 86 -24 -24 998.8 991.4
06 22.02 Ю 4 н/о н/о -17.8 -19.6 86 -26 -26 998.5 991.1
09 22.02 ЮЗ 4 н/о н/о -18.5 -20.3 86 -27 -27 999.0 991.6
12 22.02 З 3 н/о н/о -20.2 -22.6 81 -28 -28 999.3 991.8
15 22.02 ЮЗ 5 н/о н/о -18.2 -21.1 78 -28 -28 998.9 991.5
18 22.02 ЮЗ 6 н/о н/о -15.2 -18.7 75 -25 -25 998.2 990.9
21 22.02 ЮЗ 6 н/о н/о -16.9 -19.6 80 -27 -27 998.4 991.0
00 23.02 З 4 н/о н/о -22.3 -25.0 79 -32 -32 опасность
обморожения
998.8 991.2
03 23.02 З 4 н/о н/о -26.9 -29.5 79 -37 -37 опасность
обморожения
998.9 991.2
06 23.02 З 5 н/о н/о -24.1 -26.5 80 -35 -35 опасность
обморожения
998.2 990.6
09 23.02 ЮЗ 7 н/о н/о -23.9 -26.6 78 -37 -37 опасность
обморожения
1000.6 993.0
12 23.02 ЮЗ 4 н/о н/о -24.4 -27.9 73 -34 -34 опасность
обморожения
1002.8 995.1
18 23.02 З 6 н/о н/о -17.7 -21.2 74 -28 -28 1002.8 995.3
21 23.02 З 8 н/о н/о -16.9 -20.6 73 -28 -28 1002.7 995.3
00 24.02 З 5 н/о н/о -21.6 -24.7 76 -32 -32 опасность
обморожения
1002.9 995.3
03 24.02 З 7 н/о н/о -23.7 -26.4 78 -36 -36 опасность
обморожения
1002.3 994.7

 

Местоположение метеостанции Лимберт (Антарктида): широта -75.87 долгота -59.15 высота над уровнем моря 59 м.

В архиве по умолчанию представлена погода на Лимберте за последнюю неделю. Архивные данные за месяц целиком и за предыдущие месяцы, начиная с января 2011 года, Вы можете получить, выбрав интересующий диапазон дат из раскрывающегося списка и нажав кнопку "Ввод!".


*Определитесь, кто Вы:
робот инопланетянин человек

Внимание! Время в таблицах - всемирное. Для получения местного времени необходимо прибавить поправку, которая равна 0 ч.

Смотрите также архив погоды в соседних городах и на ближайших метеорологических станциях:

Погода на Sky Blue (Антарктида) (367 км)
Погода на Острове Батлер (Антарктида) (409 км)
Погода на Fossil Bluff (Антарктида) (580 км)
Погода на Бельграно II (Антарктида) (653 км)
Погода на Halley (Антарктида) (883 км)
Погода на San Martin Base (Антарктида) (904 км)
Погода на Rothera (Антарктида) (973 км)
Погода на Леднике Ларсена (Антарктида) (989 км)
Погода на Вернадский (Антарктида) (1195 км)
Погода на Палмер (Антарктида) (1248 км)

Пояснения к столбцам:

Ветер - указаны скорость ветра в м/с - средняя за 10 мин, порывы в срок и между сроками (в фигурных скобках) и направление, откуда дует ветер: С - северный, СВ - северо-восточный, В - восточный, ЮВ - юго-восточный, Ю - южный, ЮЗ - юго-западный, З - западный, СЗ - северо-западный.
Видимость - горизонтальная дальность видимости в метрах или километрах. При видимости от 1 до 10 км при отсутствии осадков обычно наблюдается дымка, при ухудшении видимости до 1 км и менее - туман. В сухую погоду видимость может ухудшаться дымом, пылью или мглою.
Явления - указаны атмосферные явления, наблюдавшиеся в срок или в последний час перед сроком; фигурными скобками обозначены явления, наблюдавшиеся между сроками (за 1-3 часа до срока); квадратными скобками обозначены град или гололедные отложения с указанием их диаметра в мм.
Облачность - указаны через наклонную черту общая и нижняя облачность в баллах и высота нижней границы облаков в метрах; квадратными скобками обозначены формы облаков: Ci - перистые, Cs - перисто-слоистые, Cc - перисто-кучевые, Ac - высококучевые, As - высокослоистые, Sc - слоисто-кучевые, Ns - слоисто-дождевые, Cu - кучевые, Cb - кучево-дождевые. Подробнее классификацию облаков см. в Атласе облаков (PDF).
T - Температура воздуха - температура, измеренная на высоте 2 м над землей.
Td - Температура точки росы - температура, при понижении до которой содержащийся в воздухе водяной пар достигнет насыщения.
f - Относительная влажность воздуха - влажноcть воздуха, измеренная на высоте 2 м над землей.
Te - Эффективная температура - температура, которую ощущает одетый по сезону человек в тени. Характеристика душности погоды. При расчете учитывается влияние влажности воздуха и скорости ветра на теплоощущения человека.
Tes - Эффективная температура на солнце - температура, которую ощущает человек, с поправкой на солнечный нагрев. Характеристика знойности погоды. Зависит от высоты солнца над горизонтом, облачности и скорости ветра. Ночью, в пасмурную погоду, а также при ветре 12 м/с и более поправка равна нулю.
P - Атмосферное давление - приведенное к уровню моря атмосферное давление.
Po - Атмосферное давление - измеренное на уровне метеостанции атмосферное давление.
Tmin - Минимальная температура - минимум температуры воздуха на высоте 2 м над землей.
Tmax - Максимальная температура - максимум температуры воздуха на высоте 2 м над землей.
R - Количество осадков - Количество выпавших осадков за период времени, мм. При наведении курсора мыши на число - период времени, за который выпало указанное количество осадков.
R24 - Количество осадков - Количество выпавших осадков за 24 часа, мм.
S - Снежный покров - Высота снежного покрова, см. При наведении курсора мыши на число - состояние снежного покрова и степень покрытия местности в баллах.